Location: Samoth
(37.3328°N, 88.7876°W)
Time: 12:13:42
(UTC+00:00)

NOSS 3-3 (A) - Pass Details

Date: 29 October 2020
Orbit: 819 x 1393 km, 63.4° (Epoch: 29 November)

Event Time Altitude Azimuth Distance (km) Brightness Sun altitude
Rises 23:22:00 0° 194° (SSW) 3,344 7.2 -5.1°
Reaches altitude 10° 23:24:25 10° 189° (S) 2,439 6.4 -5.6°
Maximum altitude 23:29:47 49° 115° (ESE) 1,124 4.1 -6.6°
Drops below altitude 10° 23:35:42 10° 42° (NE) 2,696 5.8 -7.7°
Sets 23:38:30 0° 38° (NE) 3,732 6.6 -8.3°
Enters shadow 23:38:31 - 38° (NE) 3,739 6.6 -8.3°
